IRIDIUM 166

Last updated on Fri Sep 11 2026 00:03:06 GMT+0000 (Coordinated Universal Time)

1 43570U 18061B 26253.62192207 .00000160 00000+0 49952-4 0 9991 2 43570 86.3997 21.0131 0002063 92.8079 267.3353 14.34217132425645
UTC large
Height (km)
Speed (km/s)
/
Latitude / Longitude
Inclination (degrees)
Orbital Period (minutes)
Azimuth
Elevation
Range (km)
Doppler Factor

Next 0 passes for location: London (51.5072 / 0.1276)

No passes found over London.
IRIDIUM 166